This is the latest recevied weather packets stored in our database for station/object EA7URS-13. If no packets are shown the sender has not sent any weather packets the latest 10 day(s).
| Time | Temp. | Humidity | Pressure | Rain* | Wind** | Luminosity | Snow |
|---|---|---|---|---|---|---|---|
| 1788445569 | 42.22° C | 18% | 1010.7 hPa | 0 mm | - | 493 W/m² | - |
| 1788445268 | 42.78° C | 19% | 1010.8 hPa | 0 mm | - | 518 W/m² | - |
| 1788444967 | 42.78° C | 19% | 1010.8 hPa | 0 mm | - | 518 W/m² | - |
| 1788444665 | 41.67° C | 19% | 1010.8 hPa | 0 mm | - | 534 W/m² | - |
| 1788444365 | 41.67° C | 19% | 1010.8 hPa | 0 mm | - | 534 W/m² | - |
| 1788444063 | 41.67° C | 21% | 1010.9 hPa | 0 mm | - | 555 W/m² | - |
| 1788443762 | 41.67° C | 21% | 1010.9 hPa | 0 mm | - | 555 W/m² | - |
| 1788443461 | 41.67° C | 20% | 1010.5 hPa | 0 mm | - | 574 W/m² | - |
| 1788443160 | 41.67° C | 20% | 1010.5 hPa | 0 mm | - | 574 W/m² | - |
| 1788442859 | 40.56° C | 20% | 1011.2 hPa | 0 mm | - | 596 W/m² | - |
| 1788442575 | 40.56° C | 20% | 1011.2 hPa | 0 mm | - | 596 W/m² | - |
| 1788442256 | 41.11° C | 20% | 1011.1 hPa | 0 mm | - | 617 W/m² | - |
| 1788441955 | 41.11° C | 20% | 1011.1 hPa | 0 mm | - | 617 W/m² | - |
| 1788441654 | 41.67° C | 20% | 1011.3 hPa | 0 mm | - | 630 W/m² | - |
| 1788441353 | 41.67° C | 20% | 1011.3 hPa | 0 mm | - | 630 W/m² | - |
| 1788441057 | 40.56° C | 22% | 1011.2 hPa | 0 mm | - | 649 W/m² | - |
| 1788440751 | 40.56° C | 22% | 1011.2 hPa | 0 mm | - | 649 W/m² | - |
| 1788440450 | 40.56° C | 22% | 1011.2 hPa | 0 mm | - | 672 W/m² | - |
| 1788440148 | 40.56° C | 22% | 1011.2 hPa | 0 mm | - | 672 W/m² | - |
| 1788439847 | 40° C | 22% | 1011 hPa | 0 mm | - | 586 W/m² | - |
| 1788439546 | 40° C | 22% | 1011 hPa | 0 mm | - | 586 W/m² | - |
| 1788439245 | 39.44° C | 23% | 1011 hPa | 0 mm | - | 620 W/m² | - |
| 1788438944 | 39.44° C | 23% | 1011 hPa | 0 mm | - | 620 W/m² | - |
| 1788438643 | 39.44° C | 24% | 1011.3 hPa | 0 mm | - | 456 W/m² | - |
| 1788438342 | 39.44° C | 24% | 1011.3 hPa | 0 mm | - | 456 W/m² | - |
* Rain latest hour (hover to see other rain measurements)
** Current wind speed in m/s (hover to see current wind gust speed)